Theta_e
298 296 292 295 296 292 294 292 290 291 294 295 295 295 298 301 300 301 303 304 305 305 308 307 307 308 310 320 326 330 333 335 335 330 330 330 329 331 332 332 329 328 330 328
296 292 296 294 293 293 293 291 290 292 294 294 294 294 298 299 300 302 303 303 304 305 305 305 305 306 306 308 314 321 328 332 335 332 331 331 331 331 333 332 330 328 328 329
292 293 295 293 292 291 291 291 289 290 291 292 292 293 295 297 296 298 299 300 300 300 301 302 303 303 304 305 307 312 318 325 331 334 334 331 332 331 330 329 328 327 327 328
293 293 293 292 291 293 289 293 292 290 290 287 291 287 293 296 296 297 298 298 300 300 300 298 302 306 307 307 305 304 311 318 324 331 332 329 327 326 328 330 331 329 328 326
291 291 291 291 292 294 290 292 292 291 290 290 289 288 292 291 293 295 297 298 299 299 300 301 302 302 305 307 307 305 304 311 318 325 329 330 329 329 330 331 329 330 327 328
291 294 294 293 291 293 292 292 291 290 290 284 289 288 290 291 293 295 296 297 300 300 301 301 302 303 304 307 309 312 305 305 313 320 325 327 326 326 327 328 330 331 329 326
290 291 293 294 291 292 292 291 284 283 283 282 284 285 290 293 293 295 295 296 300 301 301 302 303 303 303 304 306 307 312 313 311 314 320 323 325 326 325 325 328 328 327 324
285 283 290 294 292 290 290 290 286 280 279 283 283 283 290 293 294 294 295 298 300 301 301 301 301 302 302 303 305 306 307 310 316 318 317 320 322 322 323 324 325 327 328 327
285 285 291 292 292 294 289 287 290 282 276 283 286 288 292 293 293 294 297 298 299 299 299 299 300 300 301 302 303 304 305 305 307 312 316 314 314 315 316 316 316 317 317 314
289 284 289 290 293 292 291 292 286 286 280 280 282 283 287 290 294 295 296 297 297 297 297 298 299 299 300 301 302 302 303 303 304 306 306 307 307 309 310 312 313 314 315 315
290 289 286 290 289 288 287 287 287 289 286 283 280 285 292 292 294 296 296 296 297 297 298 298 298 298 298 299 299 299 300 300 301 303 304 304 304 304 305 306 306 306 307 308
290 289 284 286 289 290 289 290 290 285 281 283 282 285 292 291 296 298 296 296 296 298 298 297 297 297 297 296 296 296 296 296 297 299 299 299 299 300 301 301 302 303 303 304
291 288 283 284 287 289 287 288 289 288 288 284 284 286 291 293 295 296 296 296 296 296 296 296 296 295 295 295 295 295 294 294 295 296 296 296 295 296 296 297 297 298 298 300
295 288 287 283 285 288 286 287 288 289 286 285 285 288 289 291 294 295 295 296 296 296 294 295 295 295 294 294 294 294 293 293 294 294 294 293 293 293 293 294 294 294 295 295
292 286 286 287 287 287 287 287 287 286 289 285 288 287 291 292 294 296 297 296 294 293 293 294 294 294 293 293 293 293 293 292 292 293 292 291 291 291 292 291 291 292 292 292
292 285 286 283 286 286 284 287 287 288 289 288 289 287 292 296 296 295 295 295 293 293 293 293 292 292 292 292 292 292 292 291 291 291 289 289 289 289 289 289 289 290 290 291
289 286 284 282 284 284 283 285 287 288 289 289 286 291 294 291 293 295 296 295 294 293 292 291 291 291 291 291 291 290 290 290 290 289 288 287 287 287 288 288 288 288 288 289
287 285 284 279 282 278 286 286 291 289 290 290 291 292 294 295 295 296 297 296 293 292 291 291 291 291 291 291 290 290 289 289 289 287 286 286 286 285 286 286 286 286 287 286
292 286 281 279 279 283 285 285 287 287 288 292 291 293 293 292 292 290 293 295 293 292 292 292 292 291 291 290 289 288 288 288 287 286 285 285 284 283 283 283 284 285 285 285
289 290 286 278 277 275 283 285 290 289 283 289 293 293 292 290 289 293 290 291 290 291 291 290 290 290 290 289 288 287 286 286 285 284 284 284 284 282 282 284 283 284 283 283
282 283 281 280 280 282 287 286 290 281 286 284 290 292 291 291 293 292 290 289 290 290 289 290 289 288 286 286 285 285 285 284 283 283 283 283 283 281 282 283 283 282 282 282
282 281 281 282 279 277 286 287 285 289 286 288 290 291 291 290 288 288 288 288 288 288 288 287 286 285 284 284 284 284 284 283 282 282 282 281 280 281 282 281 282 282 282 281
280 286 283 285 285 285 287 288 289 289 288 288 289 289 289 288 287 287 287 287 287 287 285 283 283 283 282 281 281 281 281 280 278 277 277 278 278 279 280 280 281 282 283 282
280 281 284 285 284 284 286 288 288 289 289 288 288 288 288 286 286 286 286 285 284 283 281 280 281 280 279 278 277 276 276 275 272 273 275 277 277 278 279 280 281 281 282 282
282 282 280 281 281 284 286 288 289 288 287 286 285 285 287 286 285 285 283 282 281 280 277 277 277 277 275 275 274 273 271 269 270 271 273 275 277 277 277 279 280 280 281 282
281 280 280 282 284 286 287 289 287 286 285 285 284 283 283 285 284 282 281 279 277 276 274 274 273 272 271 270 269 268 266 265 265 268 272 273 272 274 275 277 279 282 282 283
Wind_Speed
1 8 13 14 6 3 8 7 6 2 2 3 8 13 15 11 8 12 12 11 12 12 9 5 7 9 12 14 16 18 17 19 14 11 10 9 10 9 9 8 12 11 12 14
6 13 7 10 8 7 7 7 4 4 2 2 2 13 13 13 10 11 11 11 11 9 9 7 8 8 10 12 16 17 19 18 15 12 11 9 9 9 10 9 10 12 12 15
9 3 12 8 8 9 2 5 4 2 2 2 5 10 6 5 6 7 7 7 7 9 10 8 6 4 6 9 11 13 15 17 17 17 11 7 6 5 7 8 9 12 13 13
3 3 11 10 7 7 7 6 5 7 2 4 3 6 4 4 10 6 4 3 1 4 4 1 1 3 5 5 5 8 12 14 14 16 13 15 12 12 11 10 8 8 14 13
6 9 12 9 7 8 3 7 6 4 3 2 4 7 3 2 7 3 6 4 3 3 4 5 5 4 5 5 4 3 7 11 13 14 15 12 15 11 10 10 9 10 10 13
4 2 2 3 5 2 14 10 7 4 2 6 4 7 6 6 4 5 5 4 4 4 4 5 4 4 5 6 6 5 2 5 8 10 13 15 13 12 8 9 8 7 7 8
2 2 1 3 10 5 3 12 4 4 5 5 2 6 9 3 4 2 2 4 4 4 5 6 6 7 7 9 8 7 6 6 3 7 9 11 12 12 12 11 9 10 5 4
10 6 10 6 5 10 9 6 6 7 6 3 2 9 4 2 0 3 1 2 3 5 6 7 7 7 7 8 9 8 9 8 7 5 4 3 4 3 3 5 4 5 6 7
9 5 1 1 3 7 7 7 3 8 2 2 5 5 11 4 2 5 6 5 5 6 7 8 8 8 8 9 9 9 9 9 9 7 6 5 3 2 1 2 2 3 3 2
7 5 1 1 1 3 4 12 4 1 6 5 4 6 8 6 9 7 7 7 7 7 8 8 9 9 8 9 8 10 10 10 9 9 7 6 6 5 4 3 4 5 5 5
5 4 3 4 8 12 6 7 2 3 2 4 3 5 3 7 9 11 9 7 8 8 8 7 8 8 9 8 8 9 10 10 10 9 8 7 6 6 5 5 4 4 5 5
4 5 5 8 3 3 1 7 10 7 6 3 1 6 2 3 6 12 10 8 8 8 8 7 6 7 7 7 8 9 8 9 8 8 8 8 8 7 7 7 7 6 6 6
9 4 6 3 2 0 6 5 5 4 2 8 6 7 4 3 8 7 10 9 9 9 8 7 6 7 6 6 7 8 8 8 8 7 7 8 7 7 8 8 7 7 7 7
2 3 8 13 5 7 7 8 8 10 6 11 13 15 4 8 12 10 9 9 10 8 7 6 6 6 6 6 6 7 8 7 7 7 8 9 9 9 8 8 7 6 6 6
2 5 3 4 5 4 1 8 15 16 23 14 17 17 10 15 14 16 12 12 11 10 9 7 7 6 5 6 6 6 6 7 7 8 8 9 8 8 7 8 8 7 6 6
1 4 3 3 2 3 2 8 10 15 14 13 15 16 3 11 6 10 11 13 12 11 9 8 7 6 5 5 6 6 7 7 5 7 8 8 8 7 7 7 7 7 7 8
3 6 3 5 3 3 8 16 15 9 10 10 17 18 9 10 13 14 14 14 12 11 10 8 7 5 4 4 4 5 4 4 5 6 7 7 8 9 10 10 10 10 11 12
7 5 2 4 6 8 2 4 7 18 11 16 12 5 9 8 7 5 6 12 12 12 11 8 6 5 4 3 3 2 2 3 3 4 4 6 7 7 8 8 8 8 7 8
7 5 5 6 7 7 6 5 9 12 13 21 19 13 7 6 5 1 4 8 12 11 9 7 5 4 3 4 3 2 3 3 4 5 6 6 6 6 7 7 8 7 7 8
4 1 2 4 6 11 1 2 4 3 10 7 18 18 13 11 8 5 8 8 10 9 8 7 5 4 3 4 3 3 4 4 5 6 6 6 6 6 7 7 8 6 6 8
8 5 12 7 6 7 5 4 6 8 4 1 3 5 12 10 2 11 12 9 9 8 8 6 5 5 4 4 3 4 4 5 4 5 5 6 6 6 7 7 7 7 8 7
12 10 7 6 10 15 7 7 11 2 1 3 4 7 10 9 11 14 12 12 10 9 6 6 6 5 5 6 5 4 5 5 5 7 8 7 7 7 7 8 8 8 7 8
7 5 7 9 9 2 5 2 1 2 3 4 5 7 13 15 13 14 12 10 8 7 5 5 5 5 4 6 6 6 7 8 8 8 7 8 8 8 8 9 9 8 7 7
4 3 3 3 5 4 5 2 2 4 3 5 7 12 13 15 12 10 8 8 7 6 5 2 3 4 4 5 5 5 7 8 7 8 9 9 8 10 9 7 7 7 7 7
3 10 6 4 3 1 6 6 5 6 7 8 5 4 11 12 7 8 7 6 6 6 3 3 3 2 3 5 5 6 6 7 8 8 9 10 8 9 10 9 8 8 8 8
7 7 8 7 6 3 4 11 10 12 12 10 8 6 3 5 9 6 7 5 5 4 3 2 3 3 4 5 6 5 4 5 6 8 7 7 8 8 8 9 9 11 16 17
Wind_Direction
93 182 193 182 178 103 151 147 156 158 76 191 246 267 267 268 260 258 255 251 247 248 269 241 233 221 227 228 222 221 216 215 208 210 201 199 201 202 205 200 200 201 219 212
155 206 177 114 130 128 127 154 157 102 86 220 290 274 271 263 253 245 249 254 260 263 264 247 249 237 224 229 226 224 221 217 212 209 213 213 207 212 211 202 200 200 203 218
185 142 141 134 152 134 139 170 164 94 127 75 301 272 257 254 261 267 248 253 275 285 291 289 280 283 265 237 236 235 230 225 217 216 212 208 220 214 202 205 203 203 200 205
167 126 151 147 166 168 196 207 131 129 185 258 321 277 264 272 284 256 267 141 65 339 332 319 349 13 359 311 265 241 232 225 223 215 218 216 216 220 221 217 207 203 203 204
155 160 155 178 179 177 147 138 132 110 127 310 194 263 268 358 266 182 126 92 53 49 49 72 58 33 18 0 357 276 227 223 218 216 217 217 224 233 235 228 208 202 199 204
85 13 159 119 80 83 144 106 79 80 142 240 215 250 252 211 239 164 128 37 34 52 80 79 66 50 35 27 34 38 123 203 214 217 219 227 232 238 240 239 233 206 197 199
121 140 59 140 99 116 198 157 131 187 200 243 75 221 264 259 241 154 92 14 41 60 77 69 52 42 34 27 29 41 62 69 151 204 216 225 231 237 240 242 240 235 197 192
166 195 179 170 186 172 181 210 166 186 193 159 132 229 242 148 280 274 245 126 117 100 86 67 52 46 42 36 33 45 53 61 65 89 138 201 236 255 267 274 270 262 236 224
173 179 67 346 146 164 164 205 70 99 31 248 203 246 275 219 213 162 144 143 113 83 69 66 60 52 49 51 48 48 54 55 55 68 92 88 76 54 351 283 274 270 301 316
190 116 24 52 150 57 194 142 141 250 171 224 219 267 235 194 195 150 143 129 110 96 81 71 65 60 57 55 52 55 55 54 49 51 55 64 73 71 63 38 358 327 310 295
157 111 122 166 220 173 147 182 132 155 195 209 247 233 217 232 167 161 139 126 119 105 93 81 74 65 60 60 55 58 54 54 55 51 45 44 43 52 59 54 34 5 325 312
187 112 145 199 13 353 8 190 182 190 189 245 339 258 38 313 172 150 139 133 121 116 107 92 88 82 71 60 55 52 50 49 46 52 53 41 28 29 42 40 23 7 345 330
182 167 121 129 189 58 216 183 201 106 81 193 175 247 30 112 150 151 148 148 149 140 133 128 113 90 80 70 60 54 45 41 39 50 55 49 37 31 30 23 19 12 355 343
47 132 197 203 195 135 190 186 190 192 205 208 233 239 162 186 185 179 164 159 158 154 146 135 119 105 93 76 64 58 51 37 34 43 49 43 24 24 21 13 9 6 352 341
155 150 105 59 101 93 178 186 190 203 223 203 240 233 209 191 197 198 174 162 160 157 157 153 135 116 98 81 72 57 50 36 21 33 40 34 19 16 13 12 2 358 354 348
22 116 106 117 104 63 278 229 212 228 238 258 262 260 107 200 162 174 183 173 172 168 159 146 134 121 94 71 56 46 35 29 8 33 33 22 14 6 7 5 360 1 359 358
123 132 146 168 137 99 270 222 206 206 207 217 229 245 169 185 200 197 191 185 177 166 157 151 139 117 99 74 52 48 27 10 31 35 24 13 2 4 2 358 356 358 352 346
143 116 66 124 145 207 305 5 208 212 214 217 257 201 188 202 200 206 164 171 166 158 155 151 143 131 109 92 86 62 46 51 51 47 29 12 3 358 352 350 347 343 339 334
162 139 127 169 217 317 227 191 166 176 240 220 229 222 190 134 123 90 172 160 151 153 148 140 123 104 90 57 37 26 59 50 48 29 15 3 356 342 338 333 330 326 319 317
143 133 198 160 194 218 41 177 135 131 266 202 206 220 183 159 213 185 155 131 127 129 136 136 122 109 70 38 23 34 32 27 29 8 351 341 331 318 315 312 309 299 294 295
175 174 209 188 226 273 222 145 159 170 266 85 204 161 164 195 229 130 135 128 128 127 126 118 91 80 48 22 15 45 23 31 358 337 327 321 320 311 302 300 289 285 291 289
177 179 195 200 216 251 151 115 189 170 99 167 175 169 168 135 132 137 136 135 134 129 113 76 89 73 46 36 23 21 21 352 336 331 320 323 320 317 306 297 293 282 280 285
201 204 183 203 211 86 200 16 65 176 169 190 163 155 141 137 141 140 134 126 113 106 91 67 81 97 63 39 25 1 359 350 344 332 321 316 314 305 300 298 297 295 286 285
231 171 201 164 198 215 208 222 232 211 182 149 130 142 146 141 141 133 132 135 123 121 114 88 81 72 56 35 18 6 349 346 333 322 319 315 308 309 303 296 288 287 284 284
149 153 168 265 265 315 252 230 196 166 136 123 98 108 137 133 134 136 135 135 135 134 115 79 66 48 11 356 353 357 352 349 332 320 310 306 304 305 304 293 293 283 280 272
186 169 195 223 164 192 195 191 171 161 162 154 139 135 115 141 148 139 142 138 135 122 108 76 28 351 338 337 332 348 3 356 327 311 308 311 305 305 300 299 298 284 287 279